Bloomington, IL

10:04 AM CDT on April 22, 2018 (GMT -0500)
Central Ill Regional

Weather History for KBMI - August, 2013

Change the Weather History Date:

Monday, August 12, 2013

  Actual Average Record
Temperature  
Mean Temperature 72 °F -  
Max Temperature 81 °F 85 °F 97 °F (2007)
Min Temperature 64 °F 65 °F 50 °F (2004)
Cooling Degree Days 8    
Growing Degree Days 22 (Base 50)    
Moisture  
Dew Point 66 °F    
Average Humidity 77    
Maximum Humidity 90    
Minimum Humidity 62    
Precipitation  
Precipitation 0.00 in - - ()
Sea Level Pressure  
Sea Level Pressure 29.97 in    
Wind  
Wind Speed 7 mph (WSW)    
Max Wind Speed 12 mph    
Max Gust Speed -    
Visibility 10 miles    
Events      
Averages and records for this station are not official NWS values.
T = Trace of Precipitation, MM = Missing Value Source: NWS Daily Summary

Daily Weather History Graph

Daily Weather History Graph

Search for Another Location

Airport or City:

Astronomy

Aug. 12, 2013 Rise Set
Actual Time 6:03 AM CDT 7:56 PM CDT
Civil Twilight 5:34 AM CDT 8:26 PM CDT
Nautical Twilight 4:58 AM CDT 9:02 PM CDT
Astronomical Twilight 4:19 AM CDT 9:40 PM CDT
Moon 11:56 AM CDT (8/12) 10:48 PM CDT (8/12)
Length of Visible Light 14h 52m
Length of Day
13h 53m
Waxing Crescent, 31% of the Moon is Illuminated
Aug 12
Waxing Crescent
Aug 14
First Quarter
Aug 20
Full
Aug 28
Last Quarter
Sep 5
New

Hourly Weather History & Observations

Time (CDT) Temp. Heat Index Dew Point Humidity Pressure Visibility Wind Dir Wind Speed Gust Speed Precip Events Conditions
12:56 AM 68.0 °F - 63.9 °F 87% 30.07 in 10.0 mi SSW 8.1 mph - N/A   Clear
1:56 AM 68.0 °F - 61.9 °F 81% 30.05 in 10.0 mi SSW 6.9 mph - N/A   Clear
2:56 AM 65.8 °F - 61.9 °F 87% 30.04 in 10.0 mi SSW 4.6 mph - N/A   Clear
3:56 AM 64.9 °F - 61.9 °F 90% 30.03 in 10.0 mi SSW 5.8 mph - N/A   Clear
4:56 AM 68.0 °F - 61.9 °F 81% 30.02 in 10.0 mi SW 4.6 mph - N/A   Clear
5:56 AM 65.8 °F - 61.9 °F 87% 30.02 in 10.0 mi SSW 4.6 mph - N/A   Clear
6:56 AM 64.9 °F - 61.9 °F 90% 30.02 in 10.0 mi SW 5.8 mph - N/A   Clear
7:56 AM 70.9 °F - 63.0 °F 76% 30.00 in 10.0 mi SW 8.1 mph - N/A   Clear
8:56 AM 73.9 °F - 63.9 °F 71% 29.99 in 10.0 mi SSW 11.5 mph - N/A   Clear
9:56 AM 77.0 °F - 64.9 °F 66% 29.99 in 10.0 mi SSW 10.4 mph - N/A   Clear
10:56 AM 79.0 °F - 64.9 °F 62% 30.00 in 10.0 mi SW 10.4 mph - N/A   Clear
11:56 AM 79.9 °F - 66.9 °F 64% 29.99 in 10.0 mi SW 11.5 mph - N/A   Partly Cloudy
12:56 PM 81.0 °F 83.8 °F 68.0 °F 65% 29.97 in 10.0 mi WSW 8.1 mph - N/A   Partly Cloudy
1:56 PM 81.9 °F 84.8 °F 68.0 °F 63% 29.95 in 10.0 mi West 4.6 mph - N/A   Partly Cloudy
2:56 PM 79.9 °F - 68.9 °F 69% 29.94 in 10.0 mi SW 8.1 mph - N/A   Scattered Clouds
3:56 PM 79.9 °F - 68.9 °F 69% 29.93 in 10.0 mi West 9.2 mph - N/A   Scattered Clouds
4:56 PM 79.9 °F - 68.9 °F 69% 29.90 in 10.0 mi WSW 8.1 mph - N/A   Partly Cloudy
5:56 PM 79.9 °F - 70.9 °F 74% 29.90 in 10.0 mi NW 8.1 mph - 0.00 in   Scattered Clouds
6:56 PM 77.9 °F - 68.0 °F 71% 29.90 in 10.0 mi West 6.9 mph - 0.00 in   Clear
7:56 PM 73.9 °F - 68.0 °F 82% 29.90 in 10.0 mi WSW 6.9 mph - N/A   Partly Cloudy
8:56 PM 72.9 °F - 66.9 °F 82% 29.92 in 10.0 mi West 5.8 mph - N/A   Overcast
9:56 PM 70.9 °F - 66.9 °F 87% 29.93 in 10.0 mi West 8.1 mph - N/A   Clear
10:56 PM 70.0 °F - 66.9 °F 90% 29.93 in 10.0 mi WNW 6.9 mph - N/A   Clear
11:56 PM 68.9 °F - 65.8 °F 90% 29.93 in 10.0 mi NW 8.1 mph - N/A   Clear